Regional Weather Roundup
Issued by NWS Portland, ME

Home | Current Version | Previous Version | Text Only | Print | Product List | Glossary On
Versions: 1 2 3 4 5 6 7 8 9 10 11 12 13 14 15 16 17 18 19 20 21 22 23 24 25 26 27 28 29 30 31 32 33 34 35 36 37 38 39 40 41 42 43 44 45 46 47 48 49 50
000
ASUS41 KGYX 060210
RWRGYX
WEATHER ROUNDUP FOR MAINE AND NEW HAMPSHIRE
NATIONAL WEATHER SERVICE GRAY ME
1000 PM EDT SUN JUL 05 2015

MEZ002-005-006-010-012-015-018-020-021-024-026-027-029-060300-
MAINE

CITY           SKY/WX    TMP DP  RH WIND       PRES   REMARKS
PORTLAND       CLEAR     70  62  76 W6        30.09R
SANFORD        CLEAR     61  55  82 W3        30.10R
BAR HARBOR     CLEAR     64  63  94 CALM      30.06R
WISCASSET      CLEAR     63  60  90 CALM      30.09R
ROCKLAND       CLEAR     63  55  77 W3        30.06R
FRYEBURG       CLEAR     63  57  81 CALM      30.11R
LEWISTONAUBURN CLEAR     64  57  77 CALM      30.10R
AUGUSTA        CLEAR     72  57  59 NW6       30.09R
WATERVILLE       N/A    N/A N/A N/A MISG        N/A
BANGOR         PTCLDY    65  59  81 W6        30.06R
GREENVILLE       N/A     64  55  72 CALM      30.09R
MILLINOCKET    CLEAR     68  59  73 CALM      30.07R
HOULTON        CLEAR     60  57  89 CALM      30.03R
PRESQUE ISLE   CLEAR     61  55  82 SW3       30.04R
FRENCHVILLE    CLEAR     64  55  72 NW8       30.05R
CARIBOU        CLEAR     64  56  75 CALM      30.03R
$$

NHZ002-005-008-009-011-012-014-060300-
NEW HAMPSHIRE

CITY           SKY/WX    TMP DP  RH WIND       PRES   REMARKS
PORTSMOUTH     CLEAR     71  65  80 W1        30.09R
ROCHESTER      CLEAR     69  58  67 NW7       30.09R
NASHUA         CLEAR     69  63  81 CALM      30.12R
MANCHESTER     CLEAR     73  61  65 CALM      30.09R
CONCORD        CLEAR     65  61  87 CALM      30.11R
LACONIA        CLEAR     64  57  77 CALM      30.11R
PLYMOUTH       FAIR      63  63 100 CALM      30.12R
BERLIN         CLEAR     59  55  87 CALM      30.14R
WHITEFIELD     CLEAR     60  56  86 CALM      30.15R
JAFFREY        CLEAR     63  60  90 CALM      30.16R
KEENE          CLEAR     64  59  82 CALM      30.13R
LEBANON        PTCLDY    65  61  87 CALM      30.12R
MT WASHINGTON  FOG       48  48 100 NW29        N/A  VSB 1/16
$$

VTZ005-007-008-060300-
VERMONT

CITY           SKY/WX    TMP DP  RH WIND       PRES   REMARKS
ST JOHNSBURY     N/A     65  58  78 MISG      30.12R
MONTPELIER     CLEAR     62  58  86 CALM      30.18R
BURLINGTON     CLEAR     69  61  75 SE3       30.12R
$$

MAZ007-012-024-CTZ003-RIZ002-NYZ038-NYZ072-060300-
SOUTHERN NEW ENGLAND AND NY

CITY           SKY/WX    TMP DP  RH WIND       PRES   REMARKS
BOSTON         CLEAR     77  61  57 VRB7      30.10R
WORCESTER      CLEAR     69  57  65 W8        30.15R
NANTUCKET      CLEAR     65  63  93 SW9       30.14R
PROVIDENCE     CLEAR     73  62  68 SW8       30.13R
HARTFORD       CLEAR     71  62  73 W7        30.11R
ALBANY         PTCLDY    70  60  70 SW3       30.12R
NEW YORK CITY  MOCLDY    75  64  68 S9        30.13R
$$

ANZ081-ANZ082-ANZ150-NHZ014-MEZ023>029-060300-
COASTAL MARINE OBSERVATIONS

STATION/POSITION TIME  TEMP    WIND        PRES    WAVE
                       AIR SEA DIR/SP/G            HT/PER
                 (UTC) (F)     (DEG/KT/KT) (MB)    (FT/S)
MOUNT DESERT ROC 0200   57     250/ 15/ 16 1018.1R
MATINICUS ROCK   0200   58     250/ 13/ 13 1018.1R
ISLE OF SHOALS   0200   75     260/  8/  8 1018.5R
JEFFREYS LEDGE   0103      59                N/A     3/ 7
CASHES LEDGE BUO 0150   62 59              1018.4R   4/ 8
GEORGES BANK BUO 0150   61 59  270/ 10/ 10 1019.8R   5/ 9
$$

.............KEY..............
   WCI - WIND CHILL
   TC  - TEMPERATURE IN CELSIUS
   VSB - VISIBILITY IN MILES
   HX  - HEAT INDEX
   FAIR- INDICATES FEW OR NO CLOUDS BELOW 12,000 FT, WITH NO
         SIGNIFICANT WEATHER AND/OR OBSTRUCTIONS TO VISIBILITY.




USA.gov is the U.S. government's official web portal to all federal, state and local government web resources and services.